Location: Waco, TX
(31.5480°N, 97.1670°W)
Time: 13:50:15

ISS - Pass Details

Date: 22 March 2018
Orbit: 403 x 406 km, 51.6° (Epoch: 21 March)

Event Time Altitude Azimuth Distance (km) Brightness Sun altitude
Rises 19:56:54 0° 180° (S) 2,304 0.0 -4.1°
Reaches altitude 10° 20:00:17 10° 142° (SE) 1,451 -1.4 -4.8°
Maximum altitude 20:01:13 11° 125° (SE) 1,397 -1.6 -5.0°
Drops below altitude 10° 20:02:10 10° 108° (ESE) 1,454 -1.6 -5.2°
Enters shadow 20:03:28 - 89° (E) 1,697 -1.4 -5.5°
Sets 20:05:34 0° 70° (ENE) 2,319 - -5.9°
